Location: *
(43.6428°N, 11.5461°E)
Time: 03:07:22
(UTC+00:00)

Cosmos 2100 Rocket - Pass Details

Date: 21 October 2019
Orbit: 955 x 1002 km, 82.9° (Epoch: 14 November)

Event Time Altitude Azimuth Distance (km) Brightness Sun altitude
Rises 17:47:22 0° 356° (N) 3,664 7.1 -16.2°
Reaches altitude 10° 17:49:59 10° 1° (N) 2,708 6.3 -16.7°
Maximum altitude 17:56:00 53° 77° (ENE) 1,169 4.0 -17.8°
Drops below altitude 10° 18:01:58 10° 154° (SSE) 2,677 6.0 -18.9°
Sets 18:04:31 0° 159° (SSE) 3,618 6.7 -19.3°
